Weather History for KRND - March, 2013

Change the Weather History Date:

Tuesday, March 19, 2013

  Actual Average Record
Temperature  
Mean Temperature 68 °F -  
Max Temperature 81 °F 70 °F 83 °F (2011)
Min Temperature 55 °F 51 °F 41 °F (2001)
Cooling Degree Days 2    
Growing Degree Days 18 (Base 50)    
Moisture  
Dew Point 56 °F    
Average Humidity 63    
Maximum Humidity 89    
Minimum Humidity 52    
Precipitation  
Precipitation 0.00 in - - ()
Sea Level Pressure  
Sea Level Pressure 29.92 in    
Wind  
Wind Speed 10 mph (East)    
Max Wind Speed 16 mph    
Max Gust Speed 22 mph    
Visibility 10 miles    
Events      
Averages and records for this station are not official NWS values.
T = Trace of Precipitation, MM = Missing Value Source: NWS Daily Summary

Daily Weather History Graph

Daily Weather History Graph

Search for Another Location

Airport or City:

Trip Planner

Search our weather history database for the weather conditions in past years. The results will help you decide how hot, cold, wet, or windy it might be!

Date:

Astronomy

Mar. 19, 2013 Rise Set
Actual Time 7:37 AM CDT 7:44 PM CDT
Civil Twilight 7:14 AM CDT 8:07 PM CDT
Nautical Twilight 6:46 AM CDT 8:35 PM CDT
Astronomical Twilight 6:18 AM CDT 9:03 PM CDT
Moon 12:53 PM CDT (3/19) 2:07 AM CDT (3/19)
Length of Visible Light 12h 53m
Length of Day
12h 06m
Waxing Crescent, 50% of the Moon is Illuminated
Mar 19
Waxing Crescent
Mar 19
First Quarter
Mar 27
Full
Apr 2
Last Quarter
Apr 10
New

Hourly Weather History & Observations

Time (CDT) Temp. Heat Index Dew Point Humidity Pressure Visibility Wind Dir Wind Speed Gust Speed Precip Events Conditions
12:58 AM 64.2 °F - 46.6 °F 53% 29.92 in 10.0 mi NNE 12.7 mph - N/A   Clear
1:58 AM 62.1 °F - 45.5 °F 55% 29.93 in 10.0 mi NE 11.5 mph - N/A   Clear
2:58 AM 59.9 °F - 45.3 °F 59% 29.93 in 10.0 mi NNE 12.7 mph - N/A   Clear
3:58 AM 58.6 °F - 45.0 °F 60% 29.94 in 10.0 mi NNE 9.2 mph - N/A   Clear
4:58 AM 56.7 °F - 44.8 °F 64% 29.93 in 10.0 mi North 8.1 mph - N/A   Clear
5:58 AM 56.5 °F - 45.0 °F 65% 29.92 in 10.0 mi North 9.2 mph - N/A   Clear
6:58 AM 55.4 °F - 45.1 °F 68% 29.95 in 10.0 mi North 8.1 mph - N/A   Clear
7:58 AM 55.4 °F - 45.7 °F 70% 29.96 in 10.0 mi NNE 5.8 mph - N/A   Clear
8:58 AM 59.7 °F - 47.7 °F 64% 29.98 in 10.0 mi NNE 5.8 mph - N/A   Clear
9:58 AM 65.5 °F - 52.2 °F 62% 29.99 in 10.0 mi East 8.1 mph - N/A   Clear
10:58 AM 69.3 °F - 55.0 °F 60% 29.99 in 10.0 mi ESE 4.6 mph - N/A   Clear
11:58 AM 74.5 °F - 58.1 °F 57% 29.98 in 10.0 mi SSE 9.2 mph - N/A   Clear
12:58 PM 78.8 °F - 59.9 °F 52% 29.96 in 10.0 mi South 9.2 mph 21.9 mph N/A   Clear
1:58 PM 80.8 °F 81.8 °F 61.9 °F 52% 29.93 in 10.0 mi SE 12.7 mph 18.4 mph N/A   Clear
2:04 PM 80.6 °F 81.8 °F 62.6 °F 54% 29.94 in 10.0 mi South 13.8 mph 21.9 mph N/A   Clear
2:58 PM 79.5 °F - 63.9 °F 59% 29.90 in 10.0 mi South 16.1 mph 20.7 mph N/A   Clear
3:58 PM 79.0 °F - 63.9 °F 60% 29.87 in 10.0 mi SE 12.7 mph 17.3 mph N/A   Clear
4:58 PM 78.4 °F - 63.1 °F 59% 29.84 in 10.0 mi SE 9.2 mph - N/A   Clear
5:58 PM 78.6 °F - 62.4 °F 57% 29.82 in 10.0 mi SE 8.1 mph - N/A   Clear
6:58 PM 75.7 °F - 62.6 °F 64% 29.83 in 10.0 mi ESE 5.8 mph - N/A   Clear
7:58 PM 73.4 °F - 63.0 °F 70% 29.86 in 10.0 mi ENE 5.8 mph - N/A   Clear
8:34 PM 71.6 °F - 62.6 °F 73% 29.87 in 10.0 mi ENE 5.8 mph - N/A   Light Drizzle
8:38 PM 71.6 °F - 62.6 °F 73% 29.88 in 10.0 mi ENE 5.8 mph - N/A   Clear
8:58 PM 72.0 °F - 63.0 °F 73% 29.86 in 10.0 mi East 6.9 mph - 0.00 in   Clear
9:58 PM 71.8 °F - 61.2 °F 69% 29.88 in 10.0 mi ENE 6.9 mph - N/A   Clear
10:58 PM 70.5 °F - 60.6 °F 71% 29.91 in 10.0 mi ESE 9.2 mph - N/A   Clear
11:58 PM 68.5 °F - 65.1 °F 89% 29.94 in 10.0 mi East 8.1 mph - N/A   Partly Cloudy